Location: LDNL
(36.4545°S, 141.6685°E)
Time: 12:50:03
(UTC+11:00)

deb Explorer IX - Visible Passes

Search period start: 28 January 2022 00:00
Search period end: 07 February 2022 00:00
Orbit: 544 x 1082 km, 38.8° (Epoch: 27 January)

Date Brightness Start Highest point End Pass type
(mag) Time Alt. Az. Time Alt. Az. Time Alt. Az.
28 Jan ? 02:08:07 33° ESE 02:08:07 33° ESE 02:11:52 10° ESE visible
28 Jan ? 03:49:12 37° WSW 03:52:12 73° S 03:59:29 10° E visible
28 Jan ? 05:32:32 10° WSW 05:39:44 82° NNW 05:46:55 10° ENE visible
29 Jan ? 01:43:31 21° ESE 01:43:31 21° ESE 01:45:43 10° ESE visible
29 Jan ? 03:24:38 56° WSW 03:26:06 73° S 03:33:22 10° E visible
29 Jan ? 05:06:30 10° WSW 05:13:37 83° NNW 05:20:52 10° ENE visible
30 Jan ? 01:19:07 12° ESE 01:19:07 12° ESE 01:19:33 10° ESE visible
30 Jan ? 03:00:15 72° SSE 03:00:15 72° SSE 03:07:14 10° E visible
30 Jan ? 04:41:23 14° WSW 04:47:30 84° NNW 04:54:47 10° ENE visible
31 Jan ? 02:36:11 45° ESE 02:36:11 45° ESE 02:41:04 10° E visible
31 Jan ? 04:17:20 28° WSW 04:21:24 84° NNW 04:28:41 10° ENE visible
31 Jan ? 06:01:52 10° W 06:08:21 38° NNW 06:14:51 10° NNE visible
31 Jan ? 22:29:34 10° NNW 22:32:11 24° N 22:32:11 24° N visible
01 Feb ? 02:12:34 22° E 02:12:34 22° E 02:14:54 10° E visible
01 Feb ? 03:53:46 58° W 03:55:17 85° NNW 04:02:34 10° ENE visible
01 Feb ? 05:35:49 10° W 05:42:14 38° NNW 05:48:48 10° NNE visible
01 Feb ? 22:03:51 10° NNW 22:08:09 28° NE 22:09:33 25° ENE visible
01 Feb ? 23:49:01 10° WNW 23:50:46 22° WNW 23:50:46 22° WNW visible
02 Feb ? 03:30:45 58° ENE 03:30:45 58° ENE 03:36:24 10° ENE visible
02 Feb ? 05:12:00 21° W 05:16:09 39° NNW 05:22:44 10° NNE visible
02 Feb ? 21:38:07 10° NNW 21:42:14 27° NE 21:46:22 12° E visible
02 Feb ? 23:23:12 10° WNW 23:27:33 62° NW 23:27:33 62° NW visible
03 Feb ? 03:08:16 20° ENE 03:08:16 20° ENE 03:10:14 10° ENE visible
03 Feb ? 04:49:32 39° NW 04:50:02 39° NNW 04:56:38 10° NE visible
03 Feb ? 21:12:24 10° NNW 21:16:18 25° NE 21:20:41 10° E visible
03 Feb ? 22:57:23 10° WNW 23:02:32 79° NNE 23:03:48 55° E visible
04 Feb ? 00:43:57 10° W 00:44:57 16° W 00:44:57 16° W visible
04 Feb ? 04:27:22 25° NNE 04:27:22 25° NNE 04:30:31 10° NE visible
04 Feb ? 06:08:39 10° WNW 06:10:13 11° NW 06:12:10 10° NNW visible
04 Feb ? 22:31:34 10° WNW 22:36:33 78° NNE 22:39:38 28° ESE visible
05 Feb ? 00:18:05 10° W 00:20:46 30° WSW 00:20:46 30° WSW visible
05 Feb ? 22:05:46 10° WNW 22:10:35 76° NNE 22:15:10 16° ESE visible
05 Feb ? 23:52:14 10° W 23:56:17 52° WSW 23:56:17 52° WSW visible
06 Feb ? 21:39:58 10° WNW 21:44:37 75° NNE 21:50:07 10° ESE visible
06 Feb ? 23:26:23 10° W 23:31:33 69° S 23:31:36 69° S visible
